Location: Borovka
(49.7741°N, 14.5280°E)
Time: 03:22:20
(UTC+00:00)

ESTCUBE 1 - Pass Details

Date: 17 March 2026
Orbit: 620 x 631 km, 97.7° (Epoch: 13 April)

Event Time Altitude Azimuth Distance (km) Brightness Sun altitude
Exits shadow 20:59:33 17° 276° (W) 1,616 ? -33.9°
Drops below altitude 10° 21:02:03 10° 311° (NW) 2,015 ? -34.2°
Sets 21:04:59 0° 332° (NNW) 2,931 ? -34.5°
